Andrews, TX

5:06 AM CST on December 06, 2019 (GMT -0600)
Andrews

Weather History for KE11 - October, 2019

Change the Weather History Date:

Friday, October 18, 2019

  Actual Average (KMAF) Record (KMAF)
Temperature  
Mean Temperature 70 °F -  
Max Temperature 85 °F 74 °F 91 °F (1995)
Min Temperature 54 °F 49 °F 37 °F (1999)
Cooling Degree Days 4    
Growing Degree Days 20 (Base 50)    
Moisture  
Dew Point 49 °F    
Average Humidity 51    
Maximum Humidity 80    
Minimum Humidity 26    
Precipitation  
Precipitation 0.00 in - - ()
Sea Level Pressure  
Sea Level Pressure 29.80 in    
Wind  
Wind Speed 10 mph ()    
Max Wind Speed 26 mph    
Max Gust Speed 43 mph    
Visibility 10.0 miles    
Events Rain    
Averages and records for this station are not official NWS values.
T = Trace of Precipitation, MM = Missing Value Source: Averaged Metar Reports

Daily Weather History Graph

Daily Weather History Graph

Search for Another Location

Airport or City:

Astronomy

Oct. 18, 2019 Rise Set
Actual Time 7:55 AM CDT 7:14 PM CDT
Civil Twilight 7:31 AM CDT 7:38 PM CDT
Nautical Twilight 7:02 AM CDT 8:07 PM CDT
Astronomical Twilight 6:34 AM CDT 8:35 PM CDT
Moon 10:45 PM CDT (10/18) 12:18 PM CDT (10/18)
Length of Visible Light 12h 07m
Length of Day
11h 18m
Waning Gibbous, 78% of the Moon is Illuminated
Oct 18
Waning Gibbous
Oct 21
Last Quarter
Oct 27
New
Nov 4
First Quarter
Nov 12
Full

Hourly Weather History & Observations

Time (CDT) Temp. Heat Index Dew Point Humidity Pressure Visibility Wind Dir Wind Speed Gust Speed Precip Events Conditions
12:15 AM 62.1 °F - 47.1 °F 58% 29.88 in 10.0 mi South 11.5 mph 17.3 mph N/A   Clear
12:35 AM 62.4 °F - 48.2 °F 60% 29.88 in 10.0 mi South 10.4 mph 16.1 mph N/A   Clear
12:55 AM 61.2 °F - 48.2 °F 62% 29.88 in 10.0 mi South 9.2 mph - N/A   Clear
1:15 AM 60.8 °F - 48.6 °F 64% 29.87 in 10.0 mi South 10.4 mph - N/A   Clear
1:35 AM 60.8 °F - 49.1 °F 65% 29.87 in 10.0 mi South 10.4 mph - N/A   Clear
1:55 AM 60.8 °F - 50.0 °F 68% 29.86 in 10.0 mi South 12.7 mph 19.6 mph N/A   Clear
2:15 AM 60.3 °F - 50.0 °F 69% 29.86 in 10.0 mi South 10.4 mph - N/A   Clear
2:35 AM 59.7 °F - 50.0 °F 70% 29.85 in 10.0 mi South 12.7 mph 17.3 mph N/A   Clear
2:55 AM 59.0 °F - 50.0 °F 72% 29.85 in 10.0 mi South 11.5 mph - N/A   Clear
3:15 AM 58.1 °F - 50.0 °F 74% 29.85 in 10.0 mi South 10.4 mph - N/A   Clear
3:35 AM 57.7 °F - 50.0 °F 75% 29.85 in 10.0 mi South 9.2 mph - N/A   Clear
3:55 AM 57.4 °F - 50.0 °F 76% 29.85 in 10.0 mi South 9.2 mph - N/A   Clear
4:15 AM 57.2 °F - 50.0 °F 77% 29.84 in 10.0 mi South 8.1 mph - N/A   Clear
4:35 AM 56.3 °F - 50.0 °F 79% 29.83 in 10.0 mi South 8.1 mph - N/A   Clear
4:55 AM 55.6 °F - 49.5 °F 80% 29.83 in 10.0 mi South 8.1 mph - N/A   Clear
5:15 AM 55.8 °F - 49.3 °F 79% 29.83 in 10.0 mi South 10.4 mph - N/A   Clear
5:35 AM 55.8 °F - 49.1 °F 78% 29.83 in 10.0 mi South 10.4 mph - N/A   Clear
5:55 AM 55.8 °F - 49.1 °F 78% 29.83 in 10.0 mi South 9.2 mph - N/A   Clear
6:15 AM 56.3 °F - 48.7 °F 76% 29.83 in 10.0 mi South 10.4 mph - N/A   Clear
6:35 AM 56.3 °F - 48.4 °F 75% 29.83 in 10.0 mi South 10.4 mph - N/A   Clear
6:55 AM 55.8 °F - 48.2 °F 76% 29.83 in 10.0 mi South 8.1 mph - N/A   Clear
7:15 AM 55.2 °F - 48.4 °F 78% 29.82 in 10.0 mi South 8.1 mph - N/A   Clear
7:35 AM 54.5 °F - 48.4 °F 80% 29.82 in 10.0 mi South 6.9 mph - N/A   Clear
7:55 AM 54.5 °F - 48.6 °F 80% 29.82 in 10.0 mi South 6.9 mph - N/A   Clear
8:15 AM 54.5 °F - 48.6 °F 80% 29.82 in 10.0 mi South 8.1 mph - N/A   Clear
8:35 AM 56.1 °F - 48.7 °F 76% 29.82 in 10.0 mi South 9.2 mph - N/A   Clear
8:55 AM 57.9 °F - 49.1 °F 72% 29.82 in 10.0 mi South 8.1 mph - N/A   Clear
9:15 AM 59.7 °F - 49.1 °F 68% 29.83 in 10.0 mi South 9.2 mph - N/A   Clear
9:35 AM 62.4 °F - 49.1 °F 62% 29.83 in 10.0 mi South 5.8 mph - N/A   Scattered Clouds
9:55 AM 65.3 °F - 49.1 °F 56% 29.83 in 10.0 mi South 3.5 mph - N/A   Clear
10:15 AM 68.9 °F - 49.3 °F 50% 29.83 in 10.0 mi SSW 8.1 mph - N/A   Clear
10:35 AM 71.1 °F - 49.5 °F 46% 29.83 in 10.0 mi SSW 9.2 mph - N/A   Clear
10:55 AM 73.2 °F - 49.8 °F 44% 29.82 in 10.0 mi SSW 9.2 mph - N/A   Clear
11:15 AM 77.9 °F - 50.5 °F 38% 29.81 in 10.0 mi SW 10.4 mph 18.4 mph N/A   Clear
11:35 AM 79.2 °F - 51.3 °F 38% 29.81 in 10.0 mi SW 12.7 mph 19.6 mph N/A   Clear
11:55 AM 80.6 °F - 52.2 °F 37% 29.81 in 10.0 mi WSW 12.7 mph - N/A   Clear
12:15 PM 80.6 °F - 52.7 °F 38% 29.80 in 10.0 mi WSW 16.1 mph 23.0 mph N/A   Clear
12:35 PM 81.5 °F - 52.7 °F 37% 29.80 in 10.0 mi West 16.1 mph 21.9 mph N/A   Clear
12:55 PM 81.5 °F 80.7 °F 53.1 °F 37% 29.79 in 10.0 mi West 17.3 mph 25.3 mph N/A   Clear
1:15 PM 81.9 °F - 52.5 °F 36% 29.78 in 10.0 mi WSW 18.4 mph 25.3 mph N/A   Clear
1:35 PM 82.6 °F - 52.3 °F 35% 29.76 in 10.0 mi SW 13.8 mph 23.0 mph N/A   Clear
1:55 PM 82.4 °F - 52.3 °F 35% 29.75 in 10.0 mi WSW 16.1 mph 26.5 mph N/A   Clear
2:15 PM 83.8 °F - 52.2 °F 33% 29.74 in 10.0 mi West 9.2 mph 17.3 mph N/A   Clear
2:35 PM 85.1 °F - 51.6 °F 31% 29.73 in 10.0 mi WSW 11.5 mph 20.7 mph N/A   Scattered Clouds
2:55 PM 84.4 °F - 50.4 °F 31% 29.73 in 10.0 mi West 17.3 mph 24.2 mph N/A   Clear
3:15 PM 85.3 °F - 49.8 °F 29% 29.71 in 10.0 mi WSW 16.1 mph 23.0 mph N/A   Clear
3:35 PM 84.4 °F - 48.9 °F 29% 29.71 in 10.0 mi West 16.1 mph 25.3 mph N/A   Clear
3:55 PM 84.7 °F - 48.7 °F 29% 29.71 in 10.0 mi WSW 13.8 mph 26.5 mph N/A   Scattered Clouds
4:15 PM 85.3 °F - 46.9 °F 26% 29.70 in 10.0 mi WSW 18.4 mph 23.0 mph N/A   Scattered Clouds
4:35 PM 85.1 °F - 47.3 °F 27% 29.70 in 10.0 mi SW 17.3 mph 27.6 mph N/A   Scattered Clouds
4:55 PM 84.7 °F - 48.7 °F 29% 29.70 in 10.0 mi WSW 13.8 mph 24.2 mph N/A   Mostly Cloudy
5:15 PM 82.2 °F - 48.4 °F 31% 29.70 in 10.0 mi WNW 12.7 mph 21.9 mph N/A   Mostly Cloudy
5:35 PM 82.2 °F - 49.1 °F 31% 29.71 in 10.0 mi West 9.2 mph - N/A   Mostly Cloudy
5:55 PM 81.7 °F - 47.7 °F 30% 29.71 in 10.0 mi West 10.4 mph - N/A   Mostly Cloudy
6:15 PM 81.5 °F - 48.0 °F 31% 29.71 in 10.0 mi WNW 6.9 mph - N/A   Mostly Cloudy
6:35 PM 81.7 °F - 47.1 °F 30% 29.71 in 10.0 mi West 6.9 mph 16.1 mph N/A   Scattered Clouds
6:55 PM 80.1 °F - 45.0 °F 29% 29.72 in 10.0 mi West 9.2 mph 18.4 mph N/A   Clear
7:15 PM 78.6 °F - 43.7 °F 29% 29.73 in 10.0 mi West 9.2 mph 17.3 mph N/A   Clear
7:35 PM 77.2 °F - 43.7 °F 30% 29.74 in 10.0 mi West 11.5 mph - N/A   Clear
7:55 PM 77.0 °F - 42.8 °F 29% 29.76 in 10.0 mi WNW 23.0 mph 32.2 mph N/A   Scattered Clouds
8:15 PM 72.7 °F - 46.6 °F 39% 29.79 in 10.0 mi WNW 26.5 mph 42.6 mph N/A Rain Rain
8:35 PM 74.1 °F - 44.1 °F 34% 29.76 in 10.0 mi WSW 9.2 mph - N/A   Scattered Clouds
8:55 PM 72.1 °F - 45.5 °F 38% 29.77 in 10.0 mi WSW 6.9 mph - N/A   Clear
9:15 PM 70.9 °F - 45.9 °F 41% 29.80 in 10.0 mi WNW 15.0 mph 23.0 mph N/A   Clear
9:35 PM 69.3 °F - 45.5 °F 42% 29.80 in 10.0 mi NW 9.2 mph - N/A   Clear
9:55 PM 68.2 °F - 45.5 °F 44% 29.80 in 10.0 mi WNW 5.8 mph - N/A   Scattered Clouds
10:15 PM 66.4 °F - 46.0 °F 48% 29.81 in 10.0 mi WNW 5.8 mph - N/A   Scattered Clouds
10:35 PM 66.4 °F - 45.5 °F 47% 29.81 in 10.0 mi WNW 6.9 mph - N/A   Mostly Cloudy
10:55 PM 64.6 °F - 45.7 °F 50% 29.81 in 10.0 mi WNW 5.8 mph - N/A   Scattered Clouds
11:15 PM 63.7 °F - 45.5 °F 52% 29.81 in 10.0 mi WNW 5.8 mph - N/A   Scattered Clouds
11:35 PM 63.7 °F - 45.1 °F 51% 29.81 in 10.0 mi West 4.6 mph - N/A   Scattered Clouds
11:55 PM 64.0 °F - 45.0 °F 50% 29.81 in 10.0 mi West 8.1 mph - N/A   Clear